Date String (YYYY-MM-DD hh:mm:ss) UTC,Instrument flags,Ambient pressure (hPa),Sample flow (lpm),Bypass flow (lpm),Sample temperature (°C),Ambient temperature (°C),ASC tube jacket temperature (°C),LED temperature (°C),Box temperature (°C),Sample RH (%),Span deviation,Mass concentration (μg/m³),Mass concentration (μg/m³),Mass concentration (μg/m³)
DateTimeUTC,F1_M11,P_M11,Q1_M11,Q2_M11,T1_M11,T2_M11,T3_M11,T4_M11,T5_M11,U1_M11,ZSPAN_M11,X0_M11,X2_M11,X1_M11
2022-07-02 17:00:00,,0829.1,5.00,0.00,29.3,27.9,00.0,38.0,31.2,27.4,0000.0,0008.44,0004.47,0003.75
2022-07-02 17:01:00,,0829.1,5.00,0.00,29.3,28.0,00.0,38.0,31.2,27.2,0000.0,0008.44,0004.44,0003.73
2022-07-02 17:02:00,,0829.2,5.00,0.00,29.3,28.1,00.0,38.0,31.3,26.7,0000.0,0008.52,0004.44,0003.71
2022-07-02 17:03:00,,0829.2,4.99,0.00,29.3,28.2,00.0,38.1,31.3,26.5,0000.0,0008.48,0004.42,0003.69
2022-07-02 17:04:00,,0829.2,5.00,0.00,29.4,28.3,00.0,38.1,31.4,26.5,0000.0,0008.37,0004.36,0003.67
2022-07-02 17:05:00,,0829.3,5.00,0.00,29.4,28.3,00.0,38.1,31.4,26.7,0000.0,0008.10,0004.29,0003.65
2022-07-02 17:06:00,,0829.3,5.00,0.00,29.4,27.7,00.0,38.0,31.3,26.8,0000.0,0008.06,0004.27,0003.65
2022-07-02 17:07:00,,0829.2,4.99,0.00,29.4,27.1,00.0,38.0,31.2,27.0,0000.0,0008.10,0004.30,0003.65
2022-07-02 17:08:00,,0829.2,5.00,0.00,29.3,27.0,00.0,38.0,31.1,27.4,0000.0,0008.00,0004.32,0003.66
2022-07-02 17:09:00,,0829.2,4.99,0.00,29.3,27.1,00.0,38.0,31.1,28.0,0000.0,0007.66,0004.29,0003.68
2022-07-02 17:10:00,,0829.1,4.99,0.00,29.2,27.2,00.0,38.0,31.1,28.2,0000.0,0007.65,0004.31,0003.70
2022-07-02 17:11:00,,0829.2,5.00,0.00,29.2,27.4,00.0,38.0,31.1,28.5,0000.0,0007.78,0004.36,0003.72
2022-07-02 17:12:00,,0829.2,4.99,0.00,29.2,27.6,00.0,38.0,31.1,29.0,0000.0,0007.94,0004.43,0003.77
2022-07-02 17:13:00,,0829.2,5.00,0.00,29.2,27.8,00.0,38.0,31.2,28.9,0000.0,0008.06,0004.51,0003.83
2022-07-02 17:14:00,,0829.2,5.00,0.00,29.3,27.9,00.0,38.0,31.2,29.3,0000.0,0008.30,0004.60,0003.87
2022-07-02 17:15:00,,0829.2,5.00,0.00,29.3,28.0,00.0,38.0,31.3,29.2,0000.0,0008.66,0004.69,0003.93
2022-07-02 17:16:00,,0829.2,5.00,0.00,29.3,28.2,00.0,38.0,31.3,29.2,0000.0,0009.73,0004.81,0003.98
2022-07-02 17:17:00,,0829.2,5.00,0.00,29.4,28.3,00.0,38.0,31.3,29.5,0000.0,0009.96,0004.87,0004.02
2022-07-02 17:18:00,,0829.2,5.00,0.00,29.4,28.4,00.0,38.1,31.4,29.7,0000.0,0010.00,0004.89,0004.05
2022-07-02 17:19:00,,0829.2,5.01,0.00,29.4,27.9,00.0,38.0,31.3,29.6,0000.0,0010.51,0004.94,0004.10
2022-07-02 17:20:00,,0829.2,5.00,0.00,29.4,27.3,00.0,38.0,31.2,29.8,0000.0,0010.74,0005.01,0004.14
2022-07-02 17:21:00,,0829.2,4.99,0.00,29.3,27.0,00.0,38.0,31.1,29.4,0000.0,0010.86,0005.05,0004.16
2022-07-02 17:22:00,,0829.3,5.00,0.00,29.3,27.1,00.0,38.0,31.0,29.0,0000.0,0010.81,0005.04,0004.17
2022-07-02 17:23:00,,0829.2,5.00,0.00,29.2,27.2,00.0,38.0,31.0,28.9,0000.0,0010.81,0005.07,0004.16
2022-07-02 17:24:00,,0829.2,4.99,0.00,29.2,27.4,00.0,38.0,31.1,28.6,0000.0,0011.06,0005.06,0004.14
2022-07-02 17:25:00,,0829.2,5.01,0.00,29.2,27.5,00.0,38.0,31.1,29.1,0000.0,0011.04,0005.03,0004.13
2022-07-02 17:26:00,,0829.2,4.99,0.00,29.2,27.7,00.0,38.0,31.1,29.6,0000.0,0010.77,0005.00,0004.13
2022-07-02 17:27:00,,0829.2,5.00,0.00,29.2,27.9,00.0,38.0,31.2,29.9,0000.0,0009.95,0004.98,0004.12
2022-07-02 17:28:00,,0829.2,5.00,0.00,29.3,28.0,00.0,38.0,31.2,29.5,0000.0,0010.15,0004.99,0004.12
2022-07-02 17:29:00,,0829.2,5.01,0.00,29.3,28.1,00.0,38.0,31.3,29.7,0000.0,0010.73,0005.00,0004.12
2022-07-02 17:30:00,,0829.3,5.00,0.00,29.3,28.3,00.0,38.0,31.3,29.7,0000.0,0010.26,0004.98,0004.11
2022-07-02 17:31:00,,0829.3,5.00,0.00,29.4,28.4,00.0,38.1,31.4,29.1,0000.0,0010.18,0004.93,0004.09
2022-07-02 17:32:00,,0829.2,4.99,0.00,29.4,28.1,00.0,38.0,31.4,29.0,0000.0,0010.11,0004.91,0004.08
2022-07-02 17:33:00,,0829.2,5.00,0.00,29.4,27.5,00.0,38.0,31.2,28.7,0000.0,0010.11,0004.92,0004.08
2022-07-02 17:34:00,,0829.2,5.01,0.00,29.3,27.1,00.0,38.0,31.1,29.0,0000.0,0009.99,0004.87,0004.08
2022-07-02 17:35:00,,0829.2,4.99,0.00,29.3,27.1,00.0,38.0,31.1,29.0,0000.0,0009.67,0004.84,0004.08
2022-07-02 17:36:00,,0829.2,5.01,0.00,29.2,27.2,00.0,38.0,31.0,29.4,0000.0,0009.70,0004.86,0004.10
2022-07-02 17:37:00,,0829.2,5.00,0.00,29.2,27.3,00.0,38.0,31.1,29.2,0000.0,0009.66,0004.85,0004.10
2022-07-02 17:38:00,,0829.2,5.00,0.00,29.2,27.5,00.0,38.0,31.1,29.1,0000.0,0009.74,0004.85,0004.10
2022-07-02 17:39:00,,0829.3,5.00,0.00,29.2,27.7,00.0,38.0,31.1,29.1,0000.0,0009.38,0004.82,0004.09
2022-07-02 17:40:00,,0829.3,4.99,0.00,29.2,27.8,00.0,38.0,31.2,29.3,0000.0,0008.89,0004.82,0004.10
2022-07-02 17:41:00,,0829.3,5.00,0.00,29.3,28.0,00.0,38.0,31.2,29.6,0000.0,0009.80,0004.84,0004.09
2022-07-02 17:42:00,,0829.2,4.99,0.00,29.3,28.1,00.0,38.0,31.3,28.5,0000.0,0009.77,0004.84,0004.07
2022-07-02 17:43:00,,0829.2,5.00,0.00,29.3,28.2,00.0,38.0,31.3,27.7,0000.0,0009.81,0004.84,0004.04
2022-07-02 17:44:00,,0829.2,5.00,0.00,29.4,28.2,00.0,38.0,31.3,28.1,0000.0,0009.92,0004.88,0004.02
2022-07-02 17:45:00,,0829.2,5.01,0.00,29.3,27.6,00.0,38.0,31.2,28.0,0000.0,0009.92,0004.87,0004.01
2022-07-02 17:46:00,,0829.3,5.00,0.00,29.3,27.1,00.0,37.9,31.1,28.1,0000.0,0009.88,0004.86,0003.98
2022-07-02 17:47:00,,0829.3,5.00,0.00,29.3,27.0,00.0,37.9,31.1,28.2,0000.0,0009.57,0004.78,0003.95
2022-07-02 17:48:00,,0829.2,5.00,0.00,29.2,27.1,00.0,37.9,31.0,27.9,0000.0,0009.58,0004.75,0003.91
2022-07-02 17:49:00,,0829.2,5.00,0.00,29.2,27.2,00.0,37.9,31.0,27.8,0000.0,0009.38,0004.68,0003.88
2022-07-02 17:50:00,,0829.3,5.01,0.00,29.2,27.4,00.0,37.9,31.1,27.9,0000.0,0009.40,0004.67,0003.84
2022-07-02 17:51:00,,0829.3,5.01,0.00,29.2,27.6,00.0,37.9,31.1,28.0,0000.0,0009.44,0004.65,0003.80
2022-07-02 17:52:00,,0829.2,5.00,0.00,29.2,27.8,00.0,37.9,31.2,27.9,0000.0,0009.13,0004.61,0003.76
2022-07-02 17:53:00,,0829.3,5.00,0.00,29.2,27.9,00.0,37.9,31.2,27.8,0000.0,0009.36,0004.67,0003.74
2022-07-02 17:54:00,,0829.3,5.01,0.00,29.2,28.1,00.0,38.0,31.2,27.3,0000.0,0009.41,0004.66,0003.74
2022-07-02 17:55:00,,0829.2,5.00,0.00,29.3,28.2,00.0,38.0,31.3,27.1,0000.0,0009.24,0004.59,0003.72
2022-07-02 17:56:00,,0829.2,5.00,0.00,29.3,28.3,00.0,38.0,31.4,27.3,0000.0,0009.19,0004.57,0003.71
2022-07-02 17:57:00,,0829.2,5.00,0.00,29.3,28.1,00.0,38.0,31.3,27.0,0000.0,0009.19,0004.55,0003.70
2022-07-02 17:58:00,,0829.3,5.02,0.00,29.3,27.4,00.0,37.9,31.2,26.7,0000.0,0009.33,0004.54,0003.68
2022-07-02 17:59:00,,0829.2,5.01,0.00,29.3,27.0,00.0,37.9,31.1,26.5,0000.0,0009.39,0004.53,0003.66
